Location: Costa Valle Imagna
(45.8000°N, 9.5000°E)
Time: 08:19:33
(UTC+00:00)

Cosmos 2221 - Pass Details

Date: 17 February 2020
Orbit: 593 x 616 km, 82.5° (Epoch: 09 April)

Event Time Altitude Azimuth Distance (km) Brightness Sun altitude
Rises 04:14:15 0° 176° (S) 2,819 5.9 -22.9°
Reaches altitude 10° 04:16:27 10° 173° (S) 1,924 5.1 -22.5°
Maximum altitude 04:20:37 56° 95° (E) 711 3.1 -21.8°
Drops below altitude 10° 04:24:50 10° 17° (NNE) 1,950 5.4 -21.1°
Sets 04:27:05 0° 13° (NNE) 2,862 6.2 -20.7°
